When you browse on this site, cookies collect data to enhance your experience and personalize the content and advertising you see.
Visit our Privacy Policy to learn more. By continuing to use the site, you agree to this use of cookies and data.
  • In Netherlands
  • List of Countries
  • For 7 days
  • Water Temperature
  • Satellite Maps
  • Weather Map
  • Weather Widgets
  • user-avatar
    Login

    Hourly Weather Porto Alegre

    Today, 19 July, Friday

    Time Temperature Precipitation Wind Pressure Humidity
    00:00 +15°C° 0 mm 1 mps 764 mmHg 84%
    01:00 +15°C° 0 mm 1 mps 764 mmHg 84%
    02:00 +15°C° 0 mm 1 mps 764 mmHg 84%
    03:00 +14°C° 0 mm 1 mps 764 mmHg 84%
    04:00 +14°C° 0 mm 1 mps 764 mmHg 84%
    05:00 +14°C° 0 mm 1 mps 764 mmHg 84%
    06:00 +14°C° 0 mm 1 mps 763 mmHg 84%
    07:00 +15°C° 0 mm 1 mps 764 mmHg 81%
    08:00 +15°C° 0 mm 1 mps 764 mmHg 79%
    09:00 +15°C° 0 mm 0 mps 764 mmHg 77%
    10:00 +19°C° 0 mm 1 mps 764 mmHg 71%
    11:00 +21°C° 0 mm 1 mps 763 mmHg 64%
    12:00 +21°C° 0 mm 2 mps 763 mmHg 58%
    13:00 +23°C° 0 mm 1 mps 763 mmHg 57%
    14:00 +24°C° 0 mm 1 mps 763 mmHg 56%
    15:00 +24°C° 0 mm 1 mps 762 mmHg 55%
    16:00 +23°C° 0 mm 1 mps 762 mmHg 61%
    17:00 +22°C° 0 mm 1 mps 762 mmHg 67%
    18:00 +20°C° 0 mm 1 mps 761 mmHg 73%
    19:00 +20°C° 0 mm 1 mps 762 mmHg 75%
    20:00 +19°C° 0 mm 1 mps 762 mmHg 77%
    21:00 +19°C° 0 mm 1 mps 762 mmHg 79%
    22:00 +19°C° 0 mm 1 mps 762 mmHg 81%
    23:00 +19°C° 0 mm 1 mps 762 mmHg 82%

    Tomorrow, 20 July, Saturday

    Time Temperature Precipitation Wind Pressure Humidity
    00:00 +18°C° 0 mm 1 mps 762 mmHg 84%
    01:00 +18°C° 0 mm 1 mps 762 mmHg 85%
    02:00 +18°C° 0 mm 1 mps 761 mmHg 86%
    03:00 +18°C° 0 mm 1 mps 761 mmHg 87%
    04:00 +16°C° 0 mm 1 mps 761 mmHg 86%
    05:00 +16°C° 0 mm 1 mps 761 mmHg 86%
    06:00 +16°C° 0 mm 1 mps 761 mmHg 85%
    07:00 +18°C° 0 mm 1 mps 761 mmHg 81%
    08:00 +18°C° 0 mm 1 mps 762 mmHg 78%
    09:00 +17°C° 0 mm 0 mps 762 mmHg 75%
    10:00 +21°C° 0 mm 1 mps 762 mmHg 68%
    11:00 +23°C° 0 mm 1 mps 761 mmHg 61%
    12:00 +25°C° 0 mm 1 mps 761 mmHg 54%
    13:00 +25°C° 0 mm 1 mps 761 mmHg 53%
    14:00 +26°C° 0 mm 1 mps 760 mmHg 51%
    15:00 +27°C° 0 mm 1 mps 759 mmHg 49%
    16:00 +26°C° 0 mm 1 mps 759 mmHg 55%
    17:00 +24°C° 0 mm 1 mps 759 mmHg 61%
    18:00 +23°C° 0 mm 2 mps 759 mmHg 67%
    19:00 +21°C° 0 mm 2 mps 759 mmHg 70%
    20:00 +21°C° 0 mm 1 mps 759 mmHg 73%
    21:00 +21°C° 0 mm 1 mps 759 mmHg 77%
    22:00 +21°C° 0 mm 1 mps 759 mmHg 78%
    23:00 +20°C° 0 mm 1 mps 759 mmHg 80%

    Day after tomorrow, 21 July, Sunday

    Time Temperature Precipitation Wind Pressure Humidity
    00:00 +20°C° 0 mm 1 mps 759 mmHg 81%
    01:00 +20°C° 0 mm 1 mps 759 mmHg 80%
    02:00 +20°C° 0 mm 1 mps 758 mmHg 79%
    03:00 +20°C° 0 mm 1 mps 758 mmHg 78%
    04:00 +19°C° 0 mm 1 mps 758 mmHg 79%
    05:00 +19°C° 0 mm 1 mps 758 mmHg 79%
    06:00 +19°C° 0 mm 1 mps 758 mmHg 79%
    07:00 +20°C° 0 mm 1 mps 758 mmHg 76%
    08:00 +20°C° 0 mm 1 mps 758 mmHg 73%
    09:00 +21°C° 0 mm 1 mps 759 mmHg 70%
    10:00 +23°C° 0 mm 2 mps 758 mmHg 62%
    11:00 +25°C° 0 mm 2 mps 758 mmHg 54%
    12:00 +26°C° 0 mm 3 mps 758 mmHg 46%
    13:00 +27°C° 0 mm 3 mps 757 mmHg 44%
    14:00 +28°C° 0 mm 3 mps 756 mmHg 43%
    15:00 +29°C° 0 mm 3 mps 755 mmHg 41%
    16:00 +27°C° 0 mm 2 mps 755 mmHg 47%
    17:00 +26°C° 0 mm 2 mps 755 mmHg 52%
    18:00 +24°C° 0 mm 1 mps 755 mmHg 58%
    19:00 +23°C° 0 mm 1 mps 755 mmHg 61%
    20:00 +23°C° 0 mm 1 mps 756 mmHg 64%
    21:00 +22°C° 0 mm 1 mps 756 mmHg 67%
    22:00 +22°C° 0 mm 1 mps 756 mmHg 67%
    23:00 +21°C° 0 mm 1 mps 756 mmHg 68%

    22 July, Monday

    Time Temperature Precipitation Wind Pressure Humidity
    00:00 +21°C° 0 mm 1 mps 756 mmHg 68%
    01:00 +21°C° 0 mm 1 mps 756 mmHg 69%
    02:00 +20°C° 0 mm 1 mps 756 mmHg 70%
    03:00 +20°C° 0 mm 1 mps 756 mmHg 71%
    04:00 +20°C° 0 mm 1 mps 756 mmHg 71%
    05:00 +19°C° 0 mm 1 mps 756 mmHg 72%
    06:00 +19°C° 0 mm 1 mps 756 mmHg 73%
    07:00 +20°C° 0 mm 1 mps 756 mmHg 71%
    08:00 +20°C° 0 mm 1 mps 756 mmHg 68%
    09:00 +21°C° 0 mm 1 mps 756 mmHg 66%
    10:00 +22°C° 0 mm 1 mps 756 mmHg 63%
    11:00 +24°C° 0 mm 2 mps 757 mmHg 60%
    12:00 +25°C° 0 mm 2 mps 757 mmHg 57%
    13:00 +24°C° 0.2 mm 2 mps 757 mmHg 63%
    14:00 +23°C° 0.2 mm 1 mps 757 mmHg 69%
    15:00 +22°C° 0.2 mm 1 mps 756 mmHg 75%
    16:00 +22°C° 0.1 mm 1 mps 757 mmHg 77%
    17:00 +21°C° 0.1 mm 1 mps 757 mmHg 79%
    18:00 +20°C° 0.1 mm 2 mps 757 mmHg 81%
    19:00 +20°C° 0.5 mm 2 mps 758 mmHg 83%
    20:00 +20°C° 0.5 mm 1 mps 758 mmHg 85%
    21:00 +20°C° 0.5 mm 1 mps 759 mmHg 87%
    22:00 +19°C° 0.9 mm 2 mps 759 mmHg 88%
    23:00 +18°C° 0.9 mm 2 mps 759 mmHg 89%

    23 July, Tuesday

    Time Temperature Precipitation Wind Pressure Humidity
    00:00 +18°C° 0.9 mm 3 mps 759 mmHg 90%
    01:00 +18°C° 0.9 mm 2 mps 758 mmHg 91%
    02:00 +17°C° 0.9 mm 2 mps 758 mmHg 92%
    03:00 +16°C° 0.9 mm 2 mps 758 mmHg 93%
    04:00 +16°C° 0.6 mm 2 mps 758 mmHg 93%
    05:00 +16°C° 0.6 mm 3 mps 758 mmHg 93%
    06:00 +16°C° 0.6 mm 3 mps 758 mmHg 93%
    07:00 +16°C° 1.4 mm 2 mps 759 mmHg 94%
    08:00 +17°C° 1.4 mm 2 mps 759 mmHg 94%
    09:00 +18°C° 1.4 mm 1 mps 760 mmHg 94%
    10:00 +18°C° 2.8 mm 1 mps 760 mmHg 94%
    11:00 +18°C° 2.8 mm 1 mps 760 mmHg 94%
    12:00 +18°C° 2.8 mm 1 mps 760 mmHg 95%
    13:00 +18°C° 2.9 mm 1 mps 760 mmHg 95%
    14:00 +18°C° 2.9 mm 1 mps 759 mmHg 95%
    15:00 +16°C° 2.9 mm 0 mps 759 mmHg 95%
    16:00 +18°C° 1.8 mm 1 mps 759 mmHg 95%
    17:00 +18°C° 1.8 mm 1 mps 759 mmHg 95%
    18:00 +17°C° 1.8 mm 2 mps 759 mmHg 95%
    19:00 +17°C° 0.9 mm 2 mps 759 mmHg 95%
    20:00 +17°C° 0.9 mm 2 mps 760 mmHg 95%
    21:00 +17°C° 0.9 mm 2 mps 760 mmHg 95%
    22:00 +17°C° 2.7 mm 3 mps 760 mmHg 94%
    23:00 +17°C° 2.7 mm 4 mps 761 mmHg 94%

    24 July, Wednesday

    Time Temperature Precipitation Wind Pressure Humidity
    00:00 +15°C° 2.7 mm 5 mps 761 mmHg 94%
    01:00 +15°C° 2 mm 4 mps 761 mmHg 94%
    02:00 +15°C° 2 mm 4 mps 761 mmHg 94%
    03:00 +15°C° 2 mm 4 mps 761 mmHg 94%
    04:00 +15°C° 1.5 mm 4 mps 761 mmHg 93%
    05:00 +15°C° 1.5 mm 4 mps 762 mmHg 93%
    06:00 +15°C° 1.5 mm 4 mps 762 mmHg 93%
    07:00 +15°C° 1.2 mm 4 mps 762 mmHg 93%
    08:00 +15°C° 1.2 mm 4 mps 762 mmHg 93%
    09:00 +15°C° 1.2 mm 4 mps 763 mmHg 93%
    10:00 +15°C° 2.1 mm 5 mps 763 mmHg 92%
    11:00 +14°C° 2.1 mm 5 mps 763 mmHg 92%
    12:00 +14°C° 2.1 mm 5 mps 764 mmHg 91%
    13:00 +14°C° 2.4 mm 5 mps 764 mmHg 91%
    14:00 +14°C° 2.4 mm 5 mps 763 mmHg 92%
    15:00 +14°C° 2.4 mm 4 mps 763 mmHg 92%
    16:00 +14°C° 1.6 mm 4 mps 764 mmHg 92%
    17:00 +14°C° 1.6 mm 4 mps 764 mmHg 92%
    18:00 +14°C° 1.6 mm 5 mps 764 mmHg 93%
    19:00 +14°C° 1.3 mm 5 mps 765 mmHg 92%
    20:00 +14°C° 1.3 mm 5 mps 765 mmHg 91%
    21:00 +14°C° 1.3 mm 5 mps 765 mmHg 90%
    22:00 +14°C° 1.5 mm 6 mps 765 mmHg 90%
    23:00 +13°C° 1.5 mm 6 mps 765 mmHg 91%
    Show more